www.pogodaiklimat.ru

Погода и климат >> Архив погоды >> Украина >> Гайсин


ПОГОДА в Гайсине

  • Прогноз погоды в Гайсине
  • Монитор погоды в Гайсине
  • Климат города

АРХИВ ПОГОДЫ в Гайсине

Время (UTC), дата Ветер
(напр.,м/с)
 
Видим.   Явления Облачность Т
(С)
Тd
(С)
f
(%)
Тe
(С)
Тes
(С)
Комфортность P
(гПа)
Po
(гПа)
Тmin
(С)
Tmax
(С)
R
(мм)
R24
(мм)
S
(см)
00 20.09 С 2 10 км гроза, ливневой дождь 10 баллов +13.6 +8.9 73 +13 +13 1016.0 990.8 0.3
03 20.09 С 3 10 км 10 баллов +12.9 +8.8 76 +12 +12 1014.0 988.8
06 20.09 СВ 3 10 км 10 баллов +14.9 +8.1 64 +14 +14 1013.0 988.0 +12.7 0.3
09 20.09 СВ 2 10 км 10 баллов +20.1 +8.7 48 +22 +22 комфорт 1013.0 988.4
12 20.09 ЮВ 2 10 км 6 баллов +25.2 +12.4 45 +27 +30 жарко 1012.0 987.9
15 20.09 СЗ 2 10 км 10 баллов +23.4 +12.7 51 +26 +26 жарко 1012.0 987.8
18 20.09 С 4 10 км 3 балла +19.2 +11.7 62 +20 +20 1011.0 986.4 +25.4
21 20.09 ЮВ 4 10 км 10 баллов +17.2 +11.7 70 +17 +17 1009.0 984.3
00 21.09 ЮВ 2 10 км 6 баллов +15.4 +12.7 84 +15 +15 1009.0 984.2
03 21.09 СВ 1 10 км 3 балла +13.5 +11.9 90 +14 +14 1010.0 985.0
06 21.09 В 1 10 км 10 баллов +16.4 +14.8 90 +17 +17 1008.0 983.3 +13.3
09 21.09 ЮВ 3 10 км 3 балла +23.2 +17.6 71 +29 +34 душно 1007.0 982.9
12 21.09 ЮВ 2 10 км 10 баллов +25.9 +17.0 58 +30 +30 душно 1006.0 982.2
15 21.09 З 2 10 км 10 баллов +24.2 +17.2 65 +28 +28 душно 1006.0 982.0
18 21.09 З 3 10 км гроза, ливневой дождь 10 баллов +19.3 +16.9 86 +21 +21 комфорт 1007.0 982.6 +26.1
21 21.09 штиль 0 6000 м дымка ясно +16.6 +15.6 94 +16 +16 1008.0 983.3
00 22.09 штиль 0 1200 м дымка 10 баллов +15.4 +15.2 99 +15 +15 1011.0 986.2
03 22.09 ЮЗ 1 5000 м ливневой дождь 10 баллов +15.4 +14.8 96 +16 +16 1010.0 985.2
06 22.09 штиль 0 5000 м дымка 10 баллов +16.4 +15.6 95 +16 +16 1010.0 985.3 +15.3 0.9
09 22.09 З 2 10 км 10 баллов +18.3 +15.7 85 +19 +19 1010.0 985.4
12 22.09 З 3 10 км 10 баллов +18.5 +15.7 84 +19 +19 1009.0 984.5
15 22.09 ЮЗ 6 5000 м гроза, ливневой дождь 10 баллов +15.0 +14.0 94 +13 +13 1009.0 984.2
18 22.09 С 3 3600 м гроза, ливневой дождь 10 баллов +14.8 +14.3 97 +14 +14 1009.0 984.1 +18.7 12
21 22.09 ЮВ 2 5000 м дымка 10 баллов +14.2 +13.4 95 +14 +14 1012.0 987.0
00 23.09 ЮВ 2 5000 м дымка 10 баллов +14.1 +13.3 95 +14 +14 1014.0 988.9 1
03 23.09 В 2 4800 м дымка 10 баллов +13.2 +12.6 96 +12 +12 1015.0 989.8
06 23.09 В 2 5000 м дымка 10 баллов +13.0 +12.4 96 +12 +12 1017.0 991.8 +12.8 1
09 23.09 В 3 12 км 10/5 600 м
[Cb calv Ac und]
+14.9 +12.5 86 +14 +15 1017.9 992.9
12 23.09 ЮВ 2 10 км 10 баллов +18.1 +12.8 71 +19 +19 1018.0 993.2
15 23.09 СВ 4 10 км 10 баллов +17.4 +12.9 75 +17 +17 1018.0 993.1
18 23.09 СВ 4 7000 м дымка 10 баллов +14.0 +12.9 93 +12 +12 1019.0 993.8 +18.3 0.4
21 23.09 СВ 3 8000 м дымка 10 баллов +12.7 +11.4 92 +11 +11 1019.0 993.7
00 24.09 СВ 2 5000 м дымка 10 баллов +12.2 +11.4 95 +11 +11 1019.0 993.6
03 24.09 СВ 1 3400 м дымка 10 баллов +12.5 +12.0 97 +12 +12 1019.0 993.7
06 24.09 ЮВ 1 4300 м ливневой дождь 10 баллов +12.9 +12.3 96 +13 +13 1019.0 993.7 +12.1 1
09 24.09 ЮВ 2 5000 м дымка 10 баллов +14.1 +13.1 94 +14 +14 1019.0 993.8
12 24.09 ЮВ 2 10 км 10 баллов +16.2 +13.3 83 +16 +16 1020.0 995.0 4
15 24.09 СВ 2 10 км 10 баллов +15.7 +13.4 86 +16 +16 1021.0 995.9
18 24.09 СВ 2 10 км 10 баллов +14.9 +12.9 88 +15 +15 1022.0 996.8 +16.4 12
21 24.09 СВ 2 10 км 10 баллов +14.5 +12.9 90 +14 +14 1023.0 997.8
00 25.09 С 2 10 км 10 баллов +12.5 +11.1 91 +12 +12 1024.0 998.5 1
03 25.09 С 1 8000 м дымка 10 баллов +12.7 +11.4 92 +13 +13 1024.0 998.6
06 25.09 СВ 1 6000 м дымка 10 баллов +13.9 +12.9 94 +14 +14 1025.0 999.7 +12.3 1
09 25.09 В 2 10 км 10 баллов +19.7 +15.1 75 +22 +22 комфорт 1026.0 1001.1
12 25.09 В 3 10 км 10 баллов +21.1 +12.5 58 +23 +23 комфорт 1026.0 1001.2
15 25.09 СВ 3 10 км 10 баллов +20.8 +12.2 58 +23 +23 комфорт 1025.0 1000.2
18 25.09 СВ 3 10 км ясно +16.8 +9.7 63 +17 +17 1027.0 1001.8 +21.4
21 25.09 СЗ 1 10 км ясно +12.2 +9.9 86 +12 +12 1028.0 1002.4
00 26.09 СЗ 2 10 км ясно +11.5 +8.5 82 +10 +10 1028.0 1002.3
03 26.09 С 2 10 км 3 балла +10.4 +7.5 82 +9 +9 1029.0 1003.2
06 26.09 СВ 4 10 км 10 баллов +12.3 +6.3 67 +10 +10 1029.0 1003.4 +10.2
09 26.09 СВ 4 10 км 10 баллов +15.9 +4.9 48 +15 +15 1030.0 1004.6
12 26.09 СВ 4 10 км 10 баллов +17.8 +5.0 43 +18 +18 1030.0 1004.8
15 26.09 СВ 3 10 км 10 баллов +16.8 +4.5 44 +17 +17 1030.0 1004.7
18 26.09 СВ 2 10 км 10 баллов +11.4 +5.5 67 +10 +10 1030.0 1004.3 +18.1
21 26.09 С 1 10 км 3 балла +9.6 +5.0 73 +9 +9 1031.0 1005.1

 

Местоположение метеостанции Гайсин (Винницкая область, Украина): широта 48.80 долгота 29.40 высота над уровнем моря 211 м.

В архиве по умолчанию представлена погода в Гайсине за последнюю неделю. Архивные данные за месяц целиком и за предыдущие месяцы, начиная с января 2011 года, Вы можете получить, выбрав интересующий диапазон дат из раскрывающегося списка и нажав кнопку "Ввод!".

Внимание! Время в таблицах - всемирное. Для получения местного времени необходимо прибавить поправку, которая в Гайсине равна 2 ч.

Смотрите также архив погоды в соседних городах и на ближайших метеорологических станциях:

Погода в Гайвороне (Кировоградская область, Украина) (61 км)
Погода в Умани (Черкасская область, Украина) (61 км)
Погода в Жашкове (Черкасская область, Украина) (71 км)
Погода в Виннице (Винницкая область, Украина) (75 км)
Погода в Жмеринке (Винницкая область, Украина) (99 км)
Погода в Каменке (Молдова) (100 км)
Погода в Сороках (Молдова) (105 км)
Погода в Звенигородке (Черкасская область, Украина) (114 км)
Погода в Белой Церкви (Киевская область, Украина) (118 км)
Погода в Рыбнице (Молдова) (118 км)

Пояснения к столбцам:

Ветер - указаны скорость ветра в м/с - средняя за 10 мин, порывы в срок и между сроками (в фигурных скобках) и направление, откуда дует ветер: С - северный, СВ - северо-восточный, В - восточный, ЮВ - юго-восточный, Ю - южный, ЮЗ - юго-западный, З - западный, СЗ - северо-западный.
Видимость - горизонтальная дальность видимости в метрах или километрах. При видимости от 1 до 10 км при отсутствии осадков обычно наблюдается дымка, при ухудшении видимости до 1 км и менее - туман. В сухую погоду видимость может ухудшаться дымом, пылью или мглою.
Явления - указаны атмосферные явления, наблюдавшиеся в срок или в последний час перед сроком; фигурными скобками обозначены явления, наблюдавшиеся между сроками (за 1-3 часа до срока); квадратными скобками обозначены град или гололедные отложения с указанием их диаметра в мм.
Облачность - указаны через наклонную черту общая и нижняя облачность в баллах и высота нижней границы облаков в метрах; квадратными скобками обозначены формы облаков: Ci - перистые, Cs - перисто-слоистые, Cc - перисто-кучевые, Ac - высококучевые, As - высокослоистые, Sc - слоисто-кучевые, Ns - слоисто-дождевые, Cu - кучевые, Cb - кучево-дождевые. Подробнее классификацию облаков см. в Атласе облаков (PDF).
T - Температура воздуха - температура, измеренная на высоте 2 м над землей.
Td - Температура точки росы - температура, при понижении до которой содержащийся в воздухе водяной пар достигнет насыщения.
f - Относительная влажность воздуха - влажноcть воздуха, измеренная на высоте 2 м над землей.
Te - Эффективная температура - температура, которую ощущает одетый по сезону человек в тени. Характеристика душности погоды. При расчете учитывается влияние влажности воздуха и скорости ветра на теплоощущения человека.
Tes - Эффективная температура на солнце - температура, которую ощущает человек, с поправкой на солнечный нагрев. Характеристика знойности погоды. Зависит от высоты солнца над горизонтом, облачности и скорости ветра. Ночью, в пасмурную погоду, а также при ветре 12 м/с и более поправка равна нулю.
P - Атмосферное давление - приведенное к уровню моря атмосферное давление.
Po - Атмосферное давление - измеренное на уровне метеостанции атмосферное давление.
Tmin - Минимальная температура - минимум температуры воздуха на высоте 2 м над землей.
Tmax - Максимальная температура - максимум температуры воздуха на высоте 2 м над землей.
R - Количество осадков - Количество выпавших осадков за период времени, мм. При наведении курсора мыши на число - период времени, за который выпало указанное количество осадков.
R24 - Количество осадков - Количество выпавших осадков за 24 часа, мм.
S - Снежный покров - Высота снежного покрова, см. При наведении курсора мыши на число - состояние снежного покрова и степень покрытия местности в баллах.